Location: Cabeza de los Veneras
(40.2000°N, 5.2000°W)
Time: 11:50:21
(UTC+00:00)

Cosmos 1354 Rocket - Pass Details

Date: 18 April 2024
Orbit: 762 x 781 km, 74.0° (Epoch: 26 May)

Event Time Altitude Azimuth Distance (km) Brightness Sun altitude
Rises 20:36:41 0° 345° (NNW) 3,275 8.0 -17.2°
Reaches altitude 10° 20:39:09 10° 350° (N) 2,344 7.1 -17.6°
Maximum altitude 20:44:21 52° 67° (ENE) 965 4.3 -18.4°
Enters shadow 20:46:16 35° 122° (ESE) 1,243 4.5 -18.7°
